Weather History for KGLH - March, 2013

Change the Weather History Date:

Friday, March 1, 2013

  Actual Average Record
Temperature  
Mean Temperature 36 °F 51 °F  
Max Temperature 42 °F 61 °F 83 °F (1932)
Min Temperature 30 °F 41 °F 22 °F (1937)
Degree Days  
Heating Degree Days 29 15  
Month to date heating degree days 29 15  
Since 1 July heating degree days 2032 2324  
Cooling Degree Days 0 0  
Month to date cooling degree days 0 0  
Year to date cooling degree days 10 5  
Moisture  
Dew Point 28 °F    
Average Humidity 72    
Maximum Humidity 89    
Minimum Humidity 54    
Precipitation  
Precipitation 0.00 in 0.13 in 3.82 in (1922)
Month to date precipitation 0.00 0.13  
Year to date precipitation 12.46 10.12  
Sea Level Pressure  
Sea Level Pressure 30.20 in    
Wind  
Wind Speed 7 mph (NNW)    
Max Wind Speed 20 mph    
Max Gust Speed 23 mph    
Visibility 10 miles    
Events      
T = Trace of Precipitation, MM = Missing Value Source: NWS Daily Summary

Daily Weather History Graph

Daily Weather History Graph

Search for Another Location

Airport or City:

Trip Planner

Search our weather history database for the weather conditions in past years. The results will help you decide how hot, cold, wet, or windy it might be!

Date:

Astronomy

Mar. 01, 2013 Rise Set
Actual Time 6:31 AM CST 6:00 PM CST
Civil Twilight 6:06 AM CST 6:25 PM CST
Nautical Twilight 5:38 AM CST 6:54 PM CST
Astronomical Twilight 5:09 AM CST 7:23 PM CST
Moon 10:18 PM CST (3/1) 8:33 AM CST (3/1)
Length of Visible Light 12h 18m
Length of Day
11h 29m
Waning Gibbous, 83% of the Moon is Illuminated
Mar 1
Waning Gibbous
Mar 4
Last Quarter
Mar 11
New
Mar 19
First Quarter
Mar 27
Full

Hourly Weather History & Observations

Time (CST) Temp. Windchill Dew Point Humidity Pressure Visibility Wind Dir Wind Speed Gust Speed Precip Events Conditions
12:53 AM 35.1 °F 31.0 °F 32.0 °F 89% 30.17 in 10.0 mi North 4.6 mph - N/A   Clear
1:53 AM 33.8 °F 29.6 °F 30.2 °F 87% 30.14 in 10.0 mi NNE 4.6 mph - N/A   Clear
2:53 AM 34.0 °F 28.0 °F 28.9 °F 82% 30.16 in 10.0 mi North 6.9 mph - N/A   Clear
3:53 AM 35.1 °F 28.6 °F 30.0 °F 82% 30.16 in 10.0 mi North 8.1 mph - N/A   Overcast
4:53 AM 34.0 °F 27.2 °F 28.9 °F 82% 30.17 in 10.0 mi North 8.1 mph - N/A   Mostly Cloudy
5:53 AM 34.0 °F 29.8 °F 30.0 °F 85% 30.18 in 10.0 mi North 4.6 mph - N/A   Overcast
6:53 AM 35.1 °F - 30.0 °F 82% 30.19 in 10.0 mi Calm Calm - N/A   Overcast
7:53 AM 36.0 °F 32.1 °F 28.9 °F 76% 30.21 in 10.0 mi NW 4.6 mph - N/A   Overcast
8:53 AM 39.2 °F 32.0 °F 28.4 °F 65% 30.19 in 10.0 mi NNW 11.5 mph - N/A   Clear
9:53 AM 39.9 °F 34.5 °F 26.1 °F 58% 30.23 in 10.0 mi NW 8.1 mph - N/A   Overcast
10:53 AM 39.9 °F 33.9 °F 26.1 °F 58% 30.23 in 10.0 mi NNW 9.2 mph - N/A   Overcast
11:53 AM 39.9 °F 32.9 °F 25.0 °F 55% 30.22 in 10.0 mi NW 11.5 mph - N/A   Overcast
12:53 PM 41.0 °F 32.8 °F 26.1 °F 55% 30.20 in 10.0 mi NW 16.1 mph - N/A   Overcast
1:53 PM 41.0 °F 33.5 °F 26.1 °F 55% 30.19 in 10.0 mi NW 13.8 mph - N/A   Overcast
2:53 PM 39.2 °F 32.0 °F 26.6 °F 61% 30.16 in 10.0 mi NW 11.5 mph - N/A   Overcast
3:53 PM 39.0 °F 32.3 °F 27.0 °F 62% 30.19 in 10.0 mi NNW 10.4 mph - N/A   Overcast
4:53 PM 39.0 °F 32.3 °F 28.0 °F 65% 30.20 in 10.0 mi NW 10.4 mph - N/A   Overcast
5:53 PM 39.0 °F 34.0 °F 28.0 °F 65% 30.21 in 10.0 mi NNW 6.9 mph - N/A   Overcast
6:53 PM 37.9 °F 33.5 °F 28.9 °F 70% 30.22 in 10.0 mi NW 5.8 mph - N/A   Overcast
7:53 PM 39.2 °F - 28.4 °F 65% 30.19 in 10.0 mi Calm Calm - N/A   Overcast
8:53 PM 37.0 °F - 30.0 °F 76% 30.22 in 10.0 mi Calm Calm - N/A   Overcast
9:53 PM 32.0 °F 27.5 °F 28.9 °F 88% 30.22 in 10.0 mi NNE 4.6 mph - N/A   Scattered Clouds
10:53 PM 34.0 °F 31.0 °F 28.9 °F 82% 30.22 in 10.0 mi WNW 3.5 mph - N/A   Clear
11:53 PM 33.1 °F 27.7 °F 28.0 °F 82% 30.22 in 10.0 mi North 5.8 mph - N/A   Mostly Cloudy